Weather History for KGAI - December, 2012

Change the Weather History Date:

Monday, December 10, 2012

  Actual Average (KCGS) Record (KCGS)
Temperature  
Mean Temperature 53 °F -  
Max Temperature 60 °F 49 °F 71 °F (1966)
Min Temperature 46 °F 32 °F 13 °F (1960)
Degree Days  
Heating Degree Days 12    
Growing Degree Days 3 (Base 50)    
Moisture  
Dew Point 53 °F    
Average Humidity 89    
Maximum Humidity 100    
Minimum Humidity 82    
Precipitation  
Precipitation 0.00 in - - ()
Sea Level Pressure  
Sea Level Pressure 29.74 in    
Wind  
Wind Speed 5 mph (SW)    
Max Wind Speed 16 mph    
Max Gust Speed 29 mph    
Visibility 6 miles    
Events      
Averages and records for this station are not official NWS values.
T = Trace of Precipitation, MM = Missing Value Source: NWS Daily Summary

Daily Weather History Graph

Daily Weather History Graph

Search for Another Location

Airport or City:

Trip Planner

Search our weather history database for the weather conditions in past years. The results will help you decide how hot, cold, wet, or windy it might be!

Date:

Astronomy

Dec. 10, 2012 Rise Set
Actual Time 7:17 AM EST 4:45 PM EST
Civil Twilight 6:47 AM EST 5:15 PM EST
Nautical Twilight 6:14 AM EST 5:49 PM EST
Astronomical Twilight 5:41 AM EST 6:21 PM EST
Moon 3:59 AM EST (12/10) 2:32 PM EST (12/10)
Length of Visible Light 10h 28m
Length of Day
9h 28m
Waning Crescent, 10% of the Moon is Illuminated
Dec 10
Waning Crescent
Dec 13
New
Dec 20
First Quarter
Dec 28
Full
Jan 4
Last Quarter

Hourly Weather History & Observations

Time (EST) Temp. Windchill Dew Point Humidity Pressure Visibility Wind Dir Wind Speed Gust Speed Precip Events Conditions
12:15 AM 46.4 °F 43.5 °F 46.4 °F 100% 29.98 in 0.5 mi SE 5.8 mph - N/A   Overcast
12:35 AM 46.4 °F 44.3 °F 46.4 °F 100% 29.97 in 0.5 mi SSE 4.6 mph - N/A   Overcast
12:55 AM 46.4 °F - 46.4 °F 100% 29.97 in 0.2 mi Calm Calm - N/A   Overcast
1:15 AM 46.4 °F 44.3 °F 46.4 °F 100% 29.96 in 0.2 mi South 4.6 mph - N/A   Overcast
1:35 AM 46.4 °F 44.3 °F 46.4 °F 100% 29.95 in 0.2 mi SE 4.6 mph - N/A   Overcast
1:55 AM 46.4 °F 45.2 °F 46.4 °F 100% 29.94 in 0.2 mi SSE 3.5 mph - N/A   Overcast
2:15 AM 48.2 °F - 46.4 °F 93% 29.94 in 0.5 mi Calm Calm - N/A   Overcast
2:35 AM 46.4 °F 44.3 °F 46.4 °F 100% 29.93 in 0.2 mi SSE 4.6 mph - N/A   Overcast
2:55 AM 48.2 °F - 46.4 °F 93% 29.92 in 0.5 mi South 6.9 mph - N/A   Overcast
3:15 AM 48.2 °F - 46.4 °F 93% 29.91 in 0.5 mi South 6.9 mph - N/A   Overcast
3:55 AM 48.2 °F - 46.4 °F 93% 29.89 in 0.5 mi South 3.5 mph - N/A   Overcast
4:15 AM 48.2 °F - 46.4 °F 93% 29.87 in 0.5 mi SSE 8.1 mph - N/A   Overcast
4:35 AM 48.2 °F - 46.4 °F 93% 29.87 in 0.5 mi South 4.6 mph - N/A   Overcast
4:55 AM 48.2 °F - 46.4 °F 93% 29.86 in 0.5 mi SSE 4.6 mph - N/A   Overcast
5:15 AM 48.2 °F - 48.2 °F 100% 29.85 in 0.8 mi South 3.5 mph - N/A   Overcast
5:35 AM 48.2 °F - 48.2 °F 100% 29.84 in 0.8 mi South 4.6 mph - N/A   Overcast
5:55 AM 50.0 °F - 48.2 °F 94% 29.83 in 0.8 mi South 5.8 mph - N/A   Overcast
6:15 AM 50.0 °F - 48.2 °F 94% 29.83 in 0.8 mi South 5.8 mph - N/A   Overcast
6:55 AM 51.8 °F - 50.0 °F 94% 29.81 in 0.5 mi South 6.9 mph - N/A   Overcast
7:15 AM 51.8 °F - 51.8 °F 100% 29.81 in 0.5 mi Calm Calm - N/A   Overcast
7:35 AM 53.6 °F - 51.8 °F 94% 29.82 in 0.2 mi WSW 3.5 mph - N/A   Overcast
8:15 AM 53.6 °F - 53.6 °F 100% 29.80 in 0.5 mi SW 5.8 mph - N/A   Overcast
8:35 AM 55.4 °F - 53.6 °F 94% 29.80 in 2.5 mi WSW 8.1 mph - N/A   Overcast
8:55 AM 55.4 °F - 53.6 °F 94% 29.79 in 2.5 mi SW 4.6 mph - N/A   Overcast
9:15 AM 55.4 °F - 55.4 °F 100% 29.79 in 4.0 mi WSW 8.1 mph - N/A   Overcast
9:35 AM 55.4 °F - 55.4 °F 100% 29.79 in 5.0 mi WSW 8.1 mph - N/A   Overcast
9:55 AM 55.4 °F - 55.4 °F 100% 29.78 in 5.0 mi SW 9.2 mph - N/A   Overcast
10:15 AM 57.2 °F - 55.4 °F 94% 29.78 in 5.0 mi WSW 6.9 mph - N/A   Overcast
10:35 AM 57.2 °F - 55.4 °F 94% 29.77 in 6.0 mi SW 5.8 mph - N/A   Overcast
10:55 AM 57.2 °F - 55.4 °F 94% 29.76 in 7.0 mi WSW 5.8 mph - N/A   Overcast
11:35 AM 59.0 °F - 55.4 °F 88% 29.73 in 10.0 mi WSW 10.4 mph - N/A   Overcast
11:55 AM 59.0 °F - 55.4 °F 88% 29.72 in 10.0 mi WSW 6.9 mph 17.3 mph N/A   Overcast
12:15 PM 59.0 °F - 55.4 °F 88% 29.71 in 10.0 mi WSW 4.6 mph - N/A   Overcast
12:35 PM 60.8 °F - 55.4 °F 82% 29.68 in 10.0 mi West 4.6 mph - N/A   Overcast
12:55 PM 60.8 °F - 55.4 °F 82% 29.68 in 10.0 mi WSW 8.1 mph - N/A   Overcast
1:15 PM 60.8 °F - 55.4 °F 82% 29.68 in 10.0 mi WNW 5.8 mph - N/A   Overcast
1:35 PM 60.8 °F - 55.4 °F 82% 29.67 in 10.0 mi WNW 6.9 mph - N/A   Overcast
1:55 PM 60.8 °F - 55.4 °F 82% 29.66 in 10.0 mi West 6.9 mph - N/A   Overcast
2:15 PM 60.8 °F - 55.4 °F 82% 29.64 in 10.0 mi WSW 4.6 mph - N/A   Overcast
2:35 PM 60.8 °F - 55.4 °F 82% 29.65 in 10.0 mi WSW 4.6 mph - N/A   Overcast
2:55 PM 60.8 °F - 55.4 °F 82% 29.63 in 10.0 mi SW 5.8 mph - N/A   Overcast
3:15 PM 60.8 °F - 55.4 °F 82% 29.64 in 10.0 mi WSW 5.8 mph - N/A   Overcast
3:35 PM 60.8 °F - 55.4 °F 82% 29.64 in 10.0 mi West 4.6 mph - N/A   Overcast
3:55 PM 60.8 °F - 55.4 °F 82% 29.64 in 8.0 mi WSW 4.6 mph - N/A   Overcast
4:15 PM 60.8 °F - 55.4 °F 82% 29.63 in 9.0 mi SSW 6.9 mph - N/A   Overcast
4:35 PM 60.8 °F - 55.4 °F 82% 29.62 in 10.0 mi SW 5.8 mph - N/A   Overcast
4:55 PM 60.8 °F - 55.4 °F 82% 29.61 in 10.0 mi SSW 8.1 mph - N/A   Overcast
5:15 PM 60.8 °F - 55.4 °F 82% 29.62 in 10.0 mi SW 4.6 mph - N/A   Overcast
5:35 PM 60.8 °F - 55.4 °F 82% 29.62 in 10.0 mi SSW 5.8 mph - N/A   Mostly Cloudy
5:55 PM 60.8 °F - 55.4 °F 82% 29.62 in 10.0 mi SW 3.5 mph - N/A   Mostly Cloudy
6:15 PM 60.8 °F - 55.4 °F 82% 29.62 in 10.0 mi West 5.8 mph - N/A   Mostly Cloudy
6:35 PM 60.8 °F - 55.4 °F 82% 29.63 in 10.0 mi WSW 3.5 mph - N/A   Overcast
6:55 PM 60.8 °F - 55.4 °F 82% 29.62 in 10.0 mi WSW 8.1 mph - N/A   Mostly Cloudy
7:15 PM 60.8 °F - 55.4 °F 82% 29.61 in 10.0 mi SW 5.8 mph - N/A   Mostly Cloudy
7:35 PM 60.8 °F - 55.4 °F 82% 29.61 in 10.0 mi SW 5.8 mph - N/A   Scattered Clouds
7:55 PM 60.8 °F - 55.4 °F 82% 29.62 in 10.0 mi SW 5.8 mph - N/A   Clear
8:15 PM 60.8 °F - 55.4 °F 82% 29.61 in 10.0 mi SW 5.8 mph - N/A   Clear
8:35 PM 60.8 °F - 55.4 °F 82% 29.61 in 10.0 mi WSW 8.1 mph - N/A   Scattered Clouds
8:55 PM 60.8 °F - 55.4 °F 82% 29.62 in 10.0 mi WSW 4.6 mph - N/A   Mostly Cloudy
9:15 PM 60.8 °F - 55.4 °F 82% 29.62 in 10.0 mi WSW 5.8 mph - N/A   Overcast
9:55 PM 60.8 °F - 55.4 °F 82% 29.62 in 10.0 mi SW 6.9 mph - N/A   Scattered Clouds
10:15 PM 59.0 °F - 55.4 °F 88% 29.61 in 10.0 mi SW 4.6 mph - N/A   Clear
10:35 PM 59.0 °F - 55.4 °F 88% 29.62 in 10.0 mi WSW 5.8 mph - N/A   Clear
10:55 PM 59.0 °F - 55.4 °F 88% 29.64 in 10.0 mi WSW 9.2 mph - N/A   Mostly Cloudy
11:15 PM 59.0 °F - 55.4 °F 88% 29.65 in 10.0 mi NW 10.4 mph 19.6 mph N/A   Overcast
11:35 PM 57.2 °F - 51.8 °F 82% 29.66 in 10.0 mi NW 16.1 mph 20.7 mph N/A   Overcast
11:55 PM 53.6 °F - 48.2 °F 82% 29.69 in 10.0 mi NW 16.1 mph 28.8 mph N/A   Overcast